Home > Weather > Belleville > Past weeks

Flag for Canada Weather for the Past 2 Weeks in Belleville, Ontario, Canada

Now
43 °F

Passing clouds.


Feels Like: 43 °F
Forecast: 36 / 63 °F
Wind: No wind

Location: Trenton

Current Time: May 4, 2016 at 12:58:50 AM

Latest Report: May 4, 2016 at 12:00 AM


Visibility: 15 mi

Pressure: 29.80 "Hg

Humidity: 81%

Dew Point: 37 °F

Location of BellevilleLocation

Historic Weather in Belleville — Graph

°F

Belleville Temperature Yesterday

Maximum temperature yesterday: 55 °F (at 11:00 AM)
Minimum temperature yesterday: 34 °F (at 5:55 AM)
Average temperature yesterday: 46 °F

High & Low Weather Summary for the Past Weeks

 TemperatureHumidityPressure
High68 °F (Apr 21, 1:00 PM)100% (Apr 22, 6:00 AM)30.37 "Hg (Apr 22, 6:00 AM)
Low28 °F (Apr 27, 6:00 AM)27% (Apr 19, 1:00 PM)29.78 "Hg (Apr 22, 6:00 AM)
Average46 °F64%30.05 "Hg
* Reported Apr 18 11:00 PM — May 3 11:00 PM, Belleville, Weather by CustomWeather, © 2016

Note: Actual official high and low records may vary slightly from our data, if they occured in-between our weather recording intervals... More about our weather records

Advertising

Belleville Weather History for the Previous 24 Hours

Scroll right to see more
 ConditionsComfort  
Time TempWeatherWind HumidityBarometerVisibility
11:00 PM
Tue, May 3
43 °FPassing clouds.No wind87%29.81 "Hg15 mi
10:00 PM46 °FPassing clouds.No wind76%29.82 "Hg15 mi
9:00 PM50 °FPassing clouds.2 mph67%29.82 "Hg15 mi
8:00 PM50 °FPassing clouds.7 mph71%29.82 "Hg15 mi
7:00 PM54 °FScattered clouds.8 mph63%29.81 "Hg15 mi
6:00 PM54 °FScattered clouds.9 mph63%29.81 "Hg15 mi
5:00 PM54 °FScattered clouds.8 mph67%29.82 "Hg15 mi
4:00 PM54 °FPassing clouds.9 mph72%29.83 "Hg15 mi
3:00 PM54 °FPassing clouds.12 mph77%29.85 "Hg15 mi
2:00 PM54 °FBroken clouds.9 mph77%29.87 "Hg15 mi
1:00 PM52 °FPartly sunny.8 mph82%29.89 "Hg15 mi
12:00 PM55 °FPartly sunny.6 mph63%29.89 "Hg15 mi
11:00 AM55 °FScattered clouds.6 mph67%29.90 "Hg15 mi
10:00 AM54 °FPassing clouds.2 mph77%29.91 "Hg15 mi
9:00 AM48 °FPassing clouds.3 mph94%29.94 "Hg15 mi
8:00 AM43 °FPassing clouds.No wind100%29.95 "Hg15 mi
7:00 AM34 °FFog.No wind100%29.96 "Hg4 mi
6:00 AM34 °FFog.3 mph100%29.96 "Hg1 mi
5:55 AM34 °FFog.5 mph93%29.96 "Hg1 mi
5:00 AM36 °FPassing clouds.2 mph100%29.96 "Hg7 mi
4:00 AM36 °FPassing clouds.No wind100%29.98 "Hg12 mi
3:00 AM36 °FFog.2 mph100%29.98 "Hg1 mi
2:00 AM36 °FFog.No wind100%29.98 "Hg3 mi
1:00 AM37 °FFog.No wind100%29.98 "Hg3 mi
12:00 AM39 °FPassing clouds.2 mph100%29.98 "Hg10 mi
Weather by CustomWeather, © 2016

See weather overviewHow to use our weather pages